FW6490 Weather Reports


time (UTC)temp
F
wind
direction
speed
knots
gust
knots
rain 1hr
in
rain 24hr
in
rain mn
in
humidity
%
barometer
mb
20260902221132 76 325 4.3 9.6 0.00 0.00 0.00 57 1011.9
20260902220631 76 311 5.2 10.4 0.00 0.00 0.00 57 1011.9
20260902220128 75 313 5.2 12.2 0.00 0.00 0.00 58 1011.9
20260902215625 74 298 4.3 12.2 0.00 0.00 0.00 59 1011.9
20260902214621 75 312 4.3 11.3 0.00 0.00 0.00 59 1011.9
20260902214125 76 326 3.5 9.6 0.00 0.00 0.00 57 1011.8
20260902213616 76 296 4.3 9.6 0.00 0.00 0.00 57 1011.8
20260902212612 77 103 3.5 9.6 0.00 0.00 0.00 55 1011.9
20260902212109 77 338 4.3 11.3 0.00 0.00 0.00 56 1011.9
20260902211608 77 339 4.3 11.3 0.00 0.00 0.00 55 1011.9
20260902211109 78 333 4.3 9.6 0.00 0.00 0.00 55 1011.9
20260902210609 78 333 3.5 8.7 0.00 0.00 0.00 55 1011.9
20260902210106 78 333 3.5 8.7 0.00 0.00 0.00 55 1011.9
20260902205606 78 321 3.5 10.4 0.00 0.00 0.00 56 1011.9
20260902205101 78 5 4.3 10.4 0.00 0.00 0.00 55 1011.9
20260902204607 77 313 3.5 8.7 0.00 0.00 0.00 56 1011.9
20260902204103 77 345 3.5 8.7 0.00 0.00 0.00 56 1011.9
20260902203559 77 305 4.3 8.7 0.00 0.00 0.00 55 1011.9
20260902203058 77 313 4.3 8.7 0.00 0.00 0.00 56 1011.9
20260902202556 77 346 4.3 9.6 0.00 0.00 0.00 55 1012.0
20260902202055 76 335 4.3 9.6 0.00 0.00 0.00 56 1012.0
20260902201556 77 348 4.3 9.6 0.00 0.00 0.00 55 1012.0
20260902201050 77 320 4.3 9.6 0.00 0.00 0.00 55 1012.1
20260902200549 77 283 3.5 8.7 0.00 0.00 0.00 54 1012.1
20260902195550 76 322 4.3 7.8 0.00 0.00 0.00 53 1012.0
20260902194547 76 325 4.3 9.6 0.00 0.00 0.00 53 1012.0
20260902194049 77 311 4.3 9.6 0.00 0.00 0.00 52 1012.0
20260902193544 76 345 4.3 8.7 0.00 0.00 0.00 53 1012.0
20260902193042 76 336 4.3 7.8 0.00 0.00 0.00 53 1012.0
20260902192540 77 315 4.3 8.7 0.00 0.00 0.00 51 1012.2
20260902192039 77 323 4.3 8.7 0.00 0.00 0.00 51 1012.2
20260902191539 76 310 4.3 7.8 0.00 0.00 0.00 52 1012.2
20260902191038 77 309 3.5 7.0 0.00 0.00 0.00 49 1012.4
20260902190035 77 346 3.5 7.0 0.00 0.00 0.00 49 1012.4
20260902185529 77 342 3.5 7.8 0.00 0.00 0.00 49 1012.4
20260902185030 78 325 3.5 8.7 0.00 0.00 0.00 49 1012.4
20260902184533 77 351 3.5 8.7 0.00 0.00 0.00 49 1012.4
20260902183527 77 325 3.5 9.6 0.00 0.00 0.00 48 1012.5
20260902183029 76 0 3.5 9.6 0.00 0.00 0.00 49 1012.5
20260902182525 76 344 3.5 8.7 0.00 0.00 0.00 49 1012.4
20260902182025 76 318 3.5 7.8 0.00 0.00 0.00 49 1012.4
20260902181522 75 320 3.5 7.8 0.00 0.00 0.00 49 1012.4
20260902181023 76 310 2.6 7.8 0.00 0.00 0.00 49 1012.5
20260902180522 75 333 2.6 6.1 0.00 0.00 0.00 51 1012.5
20260902180020 75 340 2.6 5.2 0.00 0.00 0.00 51 1012.5
20260902175518 74 309 2.6 5.2 0.00 0.00 0.00 51 1012.5
20260902175021 74 329 2.6 7.8 0.00 0.00 0.00 52 1012.4
20260902174519 73 317 2.6 7.8 0.00 0.00 0.00 52 1012.4
20260902174017 74 318 2.6 5.2 0.00 0.00 0.00 52 1012.4
20260902173009 73 325 1.7 5.2 0.00 0.00 0.00 53 1012.3
20260902172006 72 325 3.5 6.1 0.00 0.00 0.00 53 1012.3
20260902171504 72 327 2.6 6.1 0.00 0.00 0.00 55 1012.3
20260902171000 71 268 2.6 6.1 0.00 0.00 0.00 55 1012.3
20260902170457 71 329 3.5 7.8 0.00 0.00 0.00 57 1012.3
20260902165957 71 286 2.6 7.8 0.00 0.00 0.00 57 1012.3
20260902164456 70 334 2.6 7.8 0.00 0.00 0.00 62 1012.3
20260902163953 70 350 1.7 7.8 0.00 0.00 0.00 63 1012.2
20260902162951 69 347 1.7 3.5 0.00 0.00 0.00 67 1012.2
20260902162447 68 312 0.9 3.5 0.00 0.00 0.00 67 1012.2
20260902161942 67 309 0.9 3.5 0.00 0.00 0.00 69 1012.2
20260902160937 65 309 0.0 0.0 0.00 0.00 0.00 77 1012.2
20260902160430 64 309 0.0 0.0 0.00 0.00 0.00 80 1012.2
20260902155924 63 309 0.0 0.0 0.00 0.00 0.00 81 1012.2
20260902155423 63 309 0.0 0.0 0.00 0.00 0.00 81 1012.2
20260902154918 62 309 0.0 0.0 0.00 0.00 0.00 82 1012.2
20260902153915 62 309 0.0 0.0 0.00 0.00 0.00 83 1012.1
20260902152410 60 309 0.0 0.0 0.00 0.00 0.00 86 1012.1
20260902151906 60 309 0.0 0.0 0.00 0.00 0.00 87 1012.1
20260902151400 60 309 0.0 0.0 0.00 0.00 0.00 88 1012.1
20260902150858 59 309 0.0 1.7 0.00 0.00 0.00 89 1012.2
20260902150356 59 309 0.0 1.7 0.00 0.00 0.00 90 1012.2
20260902145857 58 309 0.0 1.7 0.00 0.00 0.00 91 1012.2
20260902145355 57 309 0.0 0.9 0.00 0.00 0.00 92 1012.2
20260902144358 56 309 0.0 1.7 0.00 0.00 0.00 93 1011.7
20260902143851 56 309 0.0 0.9 0.00 0.00 0.00 93 1011.7
20260902143348 55 309 0.0 0.0 0.00 0.00 0.00 94 1011.7
20260902142847 54 309 0.0 0.0 0.00 0.00 0.00 95 1011.6
20260902142348 53 309 0.0 0.0 0.00 0.00 0.00 95 1011.6
20260902140846 52 309 0.0 0.0 0.00 0.00 0.00 94 1011.5
20260902140339 52 309 0.0 0.0 0.00 0.00 0.00 94 1011.5
20260902135837 52 309 0.0 0.0 0.00 0.00 0.00 93 1011.6
20260902135336 53 309 0.0 1.7 0.00 0.00 0.00 94 1011.6
20260902134836 53 309 0.0 1.7 0.00 0.00 0.00 94 1011.6
20260902133836 53 309 0.9 1.7 0.00 0.00 0.00 93 1011.7
20260902133337 53 309 0.9 2.6 0.00 0.00 0.00 94 1011.7
20260902132834 54 309 0.9 2.6 0.00 0.00 0.00 94 1011.7
20260902132333 54 309 0.9 2.6 0.00 0.00 0.00 94 1011.7
20260902131832 54 309 0.9 2.6 0.00 0.00 0.00 94 1011.7
20260902131332 54 309 0.9 2.6 0.00 0.00 0.00 94 1011.6
20260902130828 53 309 0.9 3.5 0.00 0.00 0.00 94 1011.6
20260902125829 53 309 0.9 3.5 0.00 0.00 0.00 94 1011.7
20260902125327 52 309 0.9 2.6 0.00 0.00 0.00 93 1011.7
20260902124827 52 309 1.7 2.6 0.00 0.00 0.00 93 1011.7
20260902124325 52 309 1.7 3.5 0.00 0.00 0.00 93 1011.8
20260902123321 52 309 0.0 1.7 0.00 0.00 0.00 92 1011.8
20260902122819 52 309 0.0 1.7 0.00 0.00 0.00 93 1011.8
20260902121813 52 309 0.0 1.7 0.00 0.00 0.00 93 1011.8
20260902121310 52 309 0.0 0.0 0.00 0.00 0.00 92 1011.7
20260902120807 52 309 0.0 0.0 0.00 0.00 0.00 93 1011.7
20260902120307 52 309 0.0 0.0 0.00 0.00 0.00 92 1011.7
20260902115807 52 309 0.0 0.0 0.00 0.00 0.00 93 1011.9
20260902115308 52 309 0.0 0.0 0.00 0.00 0.00 92 1011.9
20260902114804 52 309 0.0 0.0 0.00 0.00 0.00 92 1011.9
20260902113804 52 309 0.0 0.0 0.00 0.00 0.00 92 1011.7
20260902113300 53 309 0.0 0.0 0.00 0.00 0.00 92 1011.7
20260902112756 53 309 0.0 0.0 0.00 0.00 0.00 93 1011.6
20260902112248 53 309 0.0 0.0 0.00 0.00 0.00 92 1011.6
20260902111746 53 309 0.0 0.0 0.00 0.00 0.00 92 1011.6
20260902111246 53 309 0.0 0.0 0.00 0.00 0.00 93 1011.5
20260902110745 53 309 0.0 0.0 0.00 0.00 0.00 93 1011.5
20260902110244 53 309 0.0 0.0 0.00 0.00 0.00 93 1011.5
20260902105738 53 309 0.0 0.0 0.00 0.00 0.00 92 1011.5
20260902105237 53 309 0.0 0.0 0.00 0.00 0.00 93 1011.5
20260902104733 53 309 0.0 0.0 0.00 0.00 0.00 93 1011.5
20260902104228 53 309 0.0 0.0 0.00 0.00 0.00 93 1011.4
20260902103727 53 309 0.0 0.0 0.00 0.00 0.00 93 1011.4
20260902103225 53 309 0.0 0.0 0.00 0.00 0.00 93 1011.4
20260902102728 53 309 0.0 0.0 0.00 0.00 0.00 93 1011.5
20260902102220 54 309 0.0 0.0 0.00 0.00 0.00 93 1011.5
20260902101720 54 309 0.0 0.0 0.00 0.00 0.00 93 1011.5
20260902101220 53 309 0.0 0.0 0.00 0.00 0.00 93 1011.5
20260902100718 53 309 0.0 0.0 0.00 0.00 0.00 93 1011.5
20260902100210 53 309 0.0 0.0 0.00 0.00 0.00 93 1011.5
20260902095708 53 309 0.0 0.0 0.00 0.00 0.00 93 1011.7
20260902095205 53 309 0.0 0.0 0.00 0.00 0.00 93 1011.7
20260902094708 53 309 0.0 0.0 0.00 0.00 0.00 93 1011.7
20260902094201 53 309 0.0 0.0 0.00 0.00 0.00 93 1011.8
20260902093659 53 309 0.0 0.0 0.00 0.00 0.00 93 1011.8
20260902093157 53 309 0.0 0.0 0.00 0.00 0.00 93 1011.8
20260902092656 53 309 0.0 0.0 0.00 0.00 0.00 93 1011.8
20260902091655 53 309 0.0 0.0 0.00 0.00 0.00 93 1011.8
20260902091150 53 309 0.0 0.0 0.00 0.00 0.00 92 1011.9
20260902090650 53 309 0.0 0.0 0.00 0.00 0.00 92 1011.9
20260902090152 53 309 0.0 0.0 0.00 0.00 0.00 92 1011.9
20260902085647 53 309 0.0 0.0 0.00 0.00 0.00 92 1012.0
20260902084637 53 309 0.0 0.0 0.00 0.00 0.00 92 1012.0
20260902084134 53 309 0.0 0.0 0.00 0.00 0.00 92 1012.0
20260902083629 53 309 0.0 0.0 0.00 0.00 0.00 92 1012.0
20260902083130 53 309 0.0 0.0 0.00 0.00 0.00 92 1012.0
20260902082626 54 309 0.0 0.0 0.00 0.00 0.00 92 1012.0
20260902082124 54 309 0.0 0.0 0.00 0.00 0.00 92 1012.0
20260902081621 54 309 0.0 0.0 0.00 0.00 0.00 92 1012.0
20260902081123 54 309 0.0 0.0 0.00 0.00 0.00 92 1011.6
20260902080618 54 309 0.0 0.0 0.00 0.00 0.00 92 1011.6
20260902080112 54 309 0.0 0.0 0.00 0.00 0.00 92 1011.6
20260902075112 54 309 0.0 0.0 0.00 0.00 0.00 92 1011.6
20260902074606 54 309 0.0 0.0 0.00 0.00 0.00 91 1011.6
20260902074106 55 309 0.0 0.0 0.00 0.00 0.00 91 1011.6
20260902073609 55 309 0.0 0.0 0.00 0.00 0.00 91 1011.6
20260902073104 55 309 0.0 0.0 0.00 0.00 0.00 91 1011.6
20260902072606 55 309 0.0 0.0 0.00 0.00 0.00 91 1011.6
20260902072059 55 309 0.0 0.0 0.00 0.00 0.00 91 1011.6
20260902071557 55 309 0.0 0.0 0.00 0.00 0.00 91 1011.6
20260902071056 56 309 0.0 0.0 0.00 0.00 0.00 91 1011.6
20260902070059 56 309 0.0 0.0 0.00 0.00 0.00 91 1011.6
20260902065556 56 309 0.0 0.0 0.00 0.00 0.00 90 1011.6
20260902065050 56 309 0.0 0.0 0.00 0.00 0.00 90 1011.6
20260902064544 56 309 0.0 0.0 0.00 0.00 0.00 90 1011.6
20260902063543 56 309 0.0 0.0 0.00 0.00 0.00 90 1011.6
20260902062534 56 309 0.0 0.9 0.00 0.00 0.00 90 1011.6
20260902062035 57 309 0.0 0.0 0.00 0.00 0.00 89 1011.6
20260902061029 57 309 0.0 0.0 0.00 0.00 0.00 89 1011.8
20260902060026 58 309 0.0 0.0 0.00 0.00 0.00 89 1011.8
20260902055524 58 309 0.0 0.0 0.00 0.00 0.00 89 1011.8
20260902055024 58 309 0.0 0.0 0.00 0.00 0.00 88 1011.8
20260902054521 58 309 0.0 0.0 0.00 0.00 0.00 88 1011.8
20260902054018 59 309 0.0 0.0 0.00 0.00 0.00 88 1012.1
20260902053017 59 309 0.0 0.0 0.00 0.00 0.00 88 1012.1
20260902052510 59 309 0.0 0.0 0.00 0.00 0.00 88 1012.1
20260902052004 59 309 0.0 0.0 0.00 0.00 0.00 88 1012.1
20260902051505 60 309 0.0 0.0 0.00 0.00 0.00 88 1012.1
20260902051001 60 309 0.0 0.0 0.00 0.00 0.00 88 1012.1
20260902050503 60 309 0.0 0.0 0.00 0.00 0.00 88 1012.1
20260902045956 60 309 0.0 0.9 0.00 0.00 0.00 87 1012.1
20260902044458 60 309 0.0 2.6 0.00 0.00 0.00 87 1011.9
20260902043957 60 309 0.9 2.6 0.00 0.00 0.00 87 1011.7
20260902043454 61 309 0.9 2.6 0.00 0.00 0.00 87 1011.7
20260902042448 61 309 1.7 5.2 0.00 0.00 0.00 86 1011.6
20260902041448 61 312 0.9 3.5 0.00 0.00 0.00 86 1011.6
20260902040944 61 311 0.9 3.5 0.00 0.00 0.00 86 1011.5
20260902040444 61 311 0.9 3.5 0.00 0.00 0.00 86 1011.5
20260902035941 61 311 0.9 2.6 0.00 0.00 0.00 86 1011.5
20260902035440 61 311 0.9 3.5 0.00 0.00 0.00 86 1011.1
20260902034937 61 311 0.9 3.5 0.00 0.00 0.00 85 1011.1
20260902034436 61 310 0.9 3.5 0.00 0.00 0.00 85 1011.1
20260902033937 61 310 0.9 3.5 0.00 0.00 0.00 85 1011.0
20260902033431 61 306 1.7 4.3 0.00 0.00 0.00 85 1011.0
20260902032930 61 306 1.7 4.3 0.00 0.00 0.00 85 1011.0
20260902032429 61 306 0.9 3.5 0.00 0.00 0.00 85 1010.9
20260902031929 61 306 0.9 4.3 0.00 0.00 0.00 84 1010.9
20260902031429 61 306 0.9 4.3 0.00 0.00 0.00 84 1010.9
20260902030927 62 306 0.9 3.5 0.00 0.00 0.00 84 1010.8
20260902025923 62 306 1.7 3.5 0.00 0.00 0.00 83 1010.8
20260902025423 62 306 1.7 4.3 0.00 0.00 0.00 82 1010.7
20260902024920 62 308 2.6 6.1 0.00 0.00 0.00 82 1010.7
20260902024417 62 309 1.7 6.1 0.00 0.00 0.00 82 1010.7
20260902023915 62 317 1.7 4.3 0.00 0.00 0.00 82 1010.7
20260902023411 62 317 1.7 6.1 0.00 0.00 0.00 82 1010.7
20260902022910 62 320 2.6 6.1 0.00 0.00 0.00 81 1010.7
20260902022410 63 296 2.6 6.1 0.00 0.00 0.00 80 1010.7
20260902021908 63 319 2.6 7.0 0.00 0.00 0.00 80 1010.7
20260902020909 63 274 3.5 9.6 0.00 0.00 0.00 77 1010.7
20260902020404 63 280 3.5 9.6 0.00 0.00 0.00 77 1010.7
20260902015904 63 265 3.5 9.6 0.00 0.00 0.00 75 1010.7
20260902014903 64 267 2.6 10.4 0.00 0.00 0.00 72 1010.6
20260902014359 65 305 2.6 7.0 0.00 0.00 0.00 70 1010.7
20260902013901 65 309 2.6 8.7 0.00 0.00 0.00 69 1010.7
20260902013400 65 308 2.6 8.7 0.00 0.00 0.00 69 1010.7
20260902012859 66 313 3.5 8.7 0.00 0.00 0.00 68 1010.7
20260902012359 67 313 3.5 6.1 0.00 0.00 0.00 66 1010.7
20260902011854 67 315 3.5 7.0 0.00 0.00 0.00 65 1010.7
20260902011355 68 306 3.5 7.0 0.00 0.00 0.00 64 1010.7
20260902010852 68 309 3.5 7.8 0.00 0.00 0.00 62 1010.7
20260902010349 68 306 3.5 7.8 0.00 0.00 0.00 63 1010.7
20260902005845 69 306 3.5 7.8 0.00 0.00 0.00 62 1010.7
20260902005345 69 324 3.5 9.6 0.00 0.00 0.00 61 1010.7
20260902004845 69 339 3.5 9.6 0.00 0.00 0.00 60 1010.7
20260902004344 69 321 3.5 7.8 0.00 0.00 0.00 60 1010.7
20260902003839 69 319 3.5 7.0 0.00 0.00 0.00 60 1010.7
20260902003340 70 348 3.5 11.3 0.00 0.00 0.00 60 1010.7
20260902002839 70 267 3.5 11.3 0.00 0.00 0.00 59 1010.7
20260902002338 70 325 4.3 10.4 0.00 0.00 0.00 58 1010.7
20260902001836 70 301 3.5 7.8 0.00 0.00 0.00 58 1010.7
20260902001339 71 340 3.5 8.7 0.00 0.00 0.00 57 1010.7
20260902000831 71 317 3.5 8.7 0.00 0.00 0.00 56 1010.7
20260902000329 71 315 3.5 7.8 0.00 0.00 0.00 55 1010.7
20260901235828 71 317 3.5 10.4 0.00 0.00 0.00 56 1010.7
20260901235327 70 324 4.3 10.4 0.00 0.00 0.00 57 1010.7
20260901234824 71 309 4.3 9.6 0.00 0.00 0.00 56 1010.7
20260901234323 71 315 4.3 9.6 0.00 0.00 0.00 56 1010.7
20260901233821 72 311 3.5 9.6 0.00 0.00 0.00 56 1010.7
20260901233321 72 317 3.5 9.6 0.00 0.00 0.00 56 1010.7
20260901232323 72 355 3.5 8.7 0.00 0.00 0.00 56 1010.7
20260901231818 71 331 4.3 8.7 0.00 0.00 0.00 56 1010.7
20260901231319 72 306 4.3 8.7 0.00 0.00 0.00 55 1010.7
20260901230814 72 334 3.5 8.7 0.00 0.00 0.00 54 1010.7
20260901230315 72 318 3.5 8.7 0.00 0.00 0.00 55 1010.7
20260901225815 72 322 4.3 9.6 0.00 0.00 0.00 54 1010.7
20260901225310 72 321 3.5 9.6 0.00 0.00 0.00 55 1010.7
20260901224809 73 311 3.5 8.7 0.00 0.00 0.00 54 1010.7
20260901224307 73 343 3.5 8.7 0.00 0.00 0.00 53 1010.9
20260901223259 73 323 3.5 8.7 0.00 0.00 0.00 55 1010.8
20260901222801 73 351 3.5 8.7 0.00 0.00 0.00 55 1011.0
20260901222301 72 348 3.5 7.8 0.00 0.00 0.00 56 1011.0
20260901221801 72 329 3.5 8.7 0.00 0.00 0.00 55 1011.0